Regional Weather Roundup
Issued by NWS

Home | Current Version | Previous Version | Text Only | Print | Product List | Glossary On
Versions: 1 2 3 4 5 6 7 8 9 10 11 12 13 14 15 16 17 18 19 20 21 22 23 24 25 26 27 28 29 30 31 32 33 34 35 36 37 38 39 40 41 42 43 44 45 46 47 48 49 50
000
ASCA42 TJSJ 282010
RWRPR
PUERTO RICO/U.S. VIRGIN ISLANDS HOURLY WEATHER ROUNDUP
NATIONAL WEATHER SERVICE SAN JUAN PR
400 PM AST FRI APR 28 2017

PRZ001>002-007>008-010-282100-
PUERTO RICO

CITY           SKY/WX    TMP DP  RH WIND       PRES   REMARKS
SAN JUAN LMM   CLOUDY    82  73  74 E15       30.01F
AGUADILLA      PTSUNNY   81  73  78 E18       30.01F
CEIBA          CLOUDY    81  73  78 E10       30.04F
$$

VIZ001>002-282100-
U.S. VIRGIN ISLANDS

CITY           SKY/WX    TMP DP  RH WIND       PRES   REMARKS
CHARLOTTE AMA  PTSUNNY   81  73  78 SE10      30.01F
CHRISTIANSTED  MOSUNNY   81  73  78 NE15G22   30.01F
$$

HOURLY WEATHER ROUNDUP FOR THE NEWS MEDIA

CITY           SKY/WX    TMP DP  RH WIND       PRES   REMARKS
ORLANDO        MOSUNNY   93  67  42 SE13G23   30.04F HX  96
NEW YORK       MOSUNNY   70  61  73 S15       30.01R
NEWARK         MOSUNNY   85  39  19 SW17G25   29.98R
CHICAGO        CLOUDY    57  46  66 E10       29.87F
HARTFORD       SUNNY     74  60  61 S13       29.94F
BOSTON         MOSUNNY   79  62  56 SW7       29.92F
DALLAS         CLOUDY    85  68  56 S16       29.60F
PHILADELPHIA   MOSUNNY   84  51  31 W8        30.01F
LOS ANGELES    MOSUNNY   82  27  13 N18G26    29.77F
WASHINGTON DC  MOSUNNY   81  58  45 S12       30.00F


USA.gov is the U.S. government's official web portal to all federal, state and local government web resources and services.